When you browse on this site, cookies collect data to enhance your experience and personalize the content and advertising you see.
Visit our Privacy Policy to learn more. By continuing to use the site, you agree to this use of cookies and data.
  • Em Portugal
  • Lista de países
  • Para 7 dias
  • Temperatura da água
  • Mapa do tempo
  • Widgets de tempo
  • user-avatar
    Iniciar Sessão

    Previsão horária em Dhaka

    Hoje, 23 Outubro, Quarta-feira

    Tempo Temperatura Precipitação Vento Pressão Humidade
    00:00 +28°C° 0 mm 2 m/s 755 mmHg 65%
    01:00 +28°C° 0 mm 2 m/s 755 mmHg 67%
    02:00 +27°C° 0 mm 2 m/s 755 mmHg 68%
    03:00 +27°C° 0 mm 2 m/s 754 mmHg 70%
    04:00 +27°C° 0 mm 2 m/s 755 mmHg 70%
    05:00 +26°C° 0 mm 2 m/s 755 mmHg 71%
    06:00 +26°C° 0 mm 1 m/s 755 mmHg 79%
    07:00 +28°C° 0.1 mm 1 m/s 755 mmHg 73%
    08:00 +30°C° 0.1 mm 2 m/s 756 mmHg 67%
    09:00 +31°C° 0.1 mm 2 m/s 756 mmHg 61%
    10:00 +32°C° 0 mm 2 m/s 756 mmHg 57%
    11:00 +33°C° 0 mm 1 m/s 755 mmHg 53%
    12:00 +34°C° 0 mm 1 m/s 755 mmHg 46%
    13:00 +35°C° 0 mm 2 m/s 755 mmHg 47%
    14:00 +35°C° 0 mm 2 m/s 754 mmHg 48%
    15:00 +34°C° 0 mm 2 m/s 753 mmHg 50%
    16:00 +32°C° 0 mm 2 m/s 754 mmHg 53%
    17:00 +31°C° 0 mm 3 m/s 754 mmHg 56%
    18:00 +30°C° 0 mm 2 m/s 754 mmHg 59%
    19:00 +30°C° 0 mm 2 m/s 755 mmHg 58%
    20:00 +30°C° 0 mm 2 m/s 755 mmHg 57%
    21:00 +30°C° 0 mm 2 m/s 755 mmHg 56%
    22:00 +29°C° 0 mm 2 m/s 756 mmHg 58%
    23:00 +29°C° 0 mm 3 m/s 756 mmHg 60%

    Amanhã, 24 Outubro, Quinta-feira

    Tempo Temperatura Precipitação Vento Pressão Humidade
    00:00 +28°C° 0 mm 3 m/s 756 mmHg 62%
    01:00 +28°C° 0.1 mm 4 m/s 756 mmHg 67%
    02:00 +27°C° 0.1 mm 4 m/s 755 mmHg 72%
    03:00 +26°C° 0.1 mm 4 m/s 755 mmHg 77%
    04:00 +25°C° 0.2 mm 5 m/s 756 mmHg 76%
    05:00 +23°C° 0.2 mm 5 m/s 756 mmHg 75%
    06:00 +22°C° 0.2 mm 5 m/s 756 mmHg 74%
    07:00 +22°C° 1.1 mm 5 m/s 757 mmHg 79%
    08:00 +21°C° 1.1 mm 5 m/s 758 mmHg 84%
    09:00 +20°C° 1.1 mm 4 m/s 759 mmHg 89%
    10:00 +21°C° 0.6 mm 4 m/s 758 mmHg 89%
    11:00 +21°C° 0.6 mm 4 m/s 758 mmHg 89%
    12:00 +21°C° 0.6 mm 4 m/s 758 mmHg 89%
    13:00 +21°C° 0.4 mm 3 m/s 757 mmHg 89%
    14:00 +21°C° 0.4 mm 3 m/s 756 mmHg 90%
    15:00 +22°C° 0.4 mm 3 m/s 756 mmHg 90%
    16:00 +23°C° 0.3 mm 2 m/s 756 mmHg 91%
    17:00 +23°C° 0.3 mm 2 m/s 756 mmHg 91%
    18:00 +23°C° 0.3 mm 2 m/s 756 mmHg 91%
    19:00 +23°C° 0.2 mm 2 m/s 756 mmHg 92%
    20:00 +23°C° 0.2 mm 2 m/s 757 mmHg 92%
    21:00 +23°C° 0.2 mm 2 m/s 757 mmHg 92%
    22:00 +23°C° 0.2 mm 2 m/s 757 mmHg 92%
    23:00 +23°C° 0.2 mm 2 m/s 757 mmHg 92%

    Depois de amanhã, 25 Outubro, Sexta-feira

    Tempo Temperatura Precipitação Vento Pressão Humidade
    00:00 +23°C° 0.2 mm 2 m/s 757 mmHg 92%
    01:00 +23°C° 0.5 mm 2 m/s 757 mmHg 92%
    02:00 +23°C° 0.5 mm 2 m/s 757 mmHg 93%
    03:00 +23°C° 0.5 mm 2 m/s 757 mmHg 93%
    04:00 +22°C° 1.1 mm 3 m/s 756 mmHg 93%
    05:00 +22°C° 1.1 mm 3 m/s 756 mmHg 93%
    06:00 +22°C° 1.1 mm 4 m/s 756 mmHg 94%
    07:00 +22°C° 1.6 mm 4 m/s 757 mmHg 93%
    08:00 +22°C° 1.6 mm 4 m/s 757 mmHg 92%
    09:00 +22°C° 1.6 mm 4 m/s 758 mmHg 92%
    10:00 +23°C° 0.3 mm 4 m/s 758 mmHg 89%
    11:00 +23°C° 0.3 mm 4 m/s 757 mmHg 87%
    12:00 +25°C° 0.3 mm 4 m/s 757 mmHg 85%
    13:00 +25°C° 0 mm 5 m/s 756 mmHg 84%
    14:00 +26°C° 0 mm 5 m/s 756 mmHg 83%
    15:00 +26°C° 0 mm 5 m/s 755 mmHg 81%
    16:00 +25°C° 0 mm 5 m/s 756 mmHg 83%
    17:00 +25°C° 0 mm 5 m/s 756 mmHg 85%
    18:00 +23°C° 0 mm 5 m/s 756 mmHg 87%
    19:00 +22°C° 0 mm 5 m/s 756 mmHg 87%
    20:00 +22°C° 0 mm 4 m/s 757 mmHg 87%
    21:00 +22°C° 0 mm 4 m/s 757 mmHg 88%
    22:00 +21°C° 0.3 mm 4 m/s 757 mmHg 88%
    23:00 +21°C° 0.3 mm 4 m/s 757 mmHg 88%

    26 Outubro, Sábado

    Tempo Temperatura Precipitação Vento Pressão Humidade
    00:00 +21°C° 0.3 mm 4 m/s 757 mmHg 87%
    01:00 +21°C° 1.1 mm 4 m/s 757 mmHg 90%
    02:00 +21°C° 1.1 mm 4 m/s 757 mmHg 92%
    03:00 +21°C° 1.1 mm 3 m/s 757 mmHg 94%
    04:00 +21°C° 1.4 mm 3 m/s 757 mmHg 94%
    05:00 +21°C° 1.4 mm 3 m/s 757 mmHg 94%
    06:00 +21°C° 1.4 mm 3 m/s 758 mmHg 94%
    07:00 +21°C° 0.7 mm 3 m/s 758 mmHg 93%
    08:00 +21°C° 0.7 mm 3 m/s 759 mmHg 92%
    09:00 +23°C° 0.7 mm 2 m/s 759 mmHg 91%
    10:00 +23°C° 0.2 mm 2 m/s 759 mmHg 89%
    11:00 +24°C° 0.2 mm 2 m/s 759 mmHg 86%
    12:00 +25°C° 0.2 mm 2 m/s 758 mmHg 84%
    13:00 +25°C° 0.1 mm 2 m/s 758 mmHg 84%
    14:00 +25°C° 0.1 mm 2 m/s 757 mmHg 84%
    15:00 +25°C° 0.1 mm 2 m/s 757 mmHg 83%
    16:00 +25°C° 0 mm 2 m/s 757 mmHg 85%
    17:00 +25°C° 0 mm 2 m/s 757 mmHg 87%
    18:00 +24°C° 0 mm 2 m/s 757 mmHg 88%
    19:00 +24°C° 0 mm 2 m/s 757 mmHg 89%
    20:00 +24°C° 0 mm 2 m/s 757 mmHg 90%
    21:00 +24°C° 0 mm 2 m/s 758 mmHg 91%
    22:00 +24°C° 0 mm 2 m/s 758 mmHg 92%
    23:00 +23°C° 0 mm 2 m/s 758 mmHg 92%

    27 Outubro, Domingo

    Tempo Temperatura Precipitação Vento Pressão Humidade
    00:00 +23°C° 0 mm 2 m/s 758 mmHg 93%
    01:00 +23°C° 0 mm 2 m/s 757 mmHg 93%
    02:00 +23°C° 0 mm 2 m/s 757 mmHg 94%
    03:00 +23°C° 0 mm 2 m/s 757 mmHg 94%
    04:00 +23°C° 0 mm 2 m/s 757 mmHg 94%
    05:00 +23°C° 0 mm 2 m/s 757 mmHg 94%
    06:00 +23°C° 0 mm 1 m/s 757 mmHg 94%
    07:00 +24°C° 0.2 mm 2 m/s 758 mmHg 90%
    08:00 +25°C° 0.2 mm 2 m/s 759 mmHg 85%
    09:00 +26°C° 0.2 mm 3 m/s 759 mmHg 81%
    10:00 +27°C° 0.6 mm 3 m/s 759 mmHg 78%
    11:00 +28°C° 0.6 mm 3 m/s 758 mmHg 75%
    12:00 +28°C° 0.6 mm 3 m/s 758 mmHg 72%
    13:00 +29°C° 0 mm 3 m/s 757 mmHg 70%
    14:00 +29°C° 0 mm 3 m/s 757 mmHg 68%
    15:00 +29°C° 0 mm 2 m/s 756 mmHg 66%
    16:00 +28°C° 0 mm 2 m/s 756 mmHg 70%
    17:00 +27°C° 0 mm 2 m/s 756 mmHg 73%
    18:00 +26°C° 0 mm 2 m/s 756 mmHg 77%
    19:00 +26°C° 0 mm 2 m/s 756 mmHg 79%
    20:00 +25°C° 0 mm 2 m/s 757 mmHg 81%
    21:00 +25°C° 0 mm 2 m/s 757 mmHg 83%
    22:00 +25°C° 0 mm 2 m/s 757 mmHg 84%
    23:00 +25°C° 0 mm 1 m/s 757 mmHg 86%

    28 Outubro, Segunda-feira

    Tempo Temperatura Precipitação Vento Pressão Humidade
    00:00 +24°C° 0 mm 1 m/s 757 mmHg 88%
    01:00 +24°C° 0 mm 2 m/s 757 mmHg 89%
    02:00 +24°C° 0 mm 2 m/s 757 mmHg 89%
    03:00 +24°C° 0 mm 2 m/s 757 mmHg 90%
    04:00 +24°C° 0 mm 2 m/s 757 mmHg 89%
    05:00 +24°C° 0 mm 2 m/s 757 mmHg 89%
    06:00 +23°C° 0 mm 2 m/s 757 mmHg 88%
    07:00 +25°C° 0 mm 2 m/s 758 mmHg 83%
    08:00 +26°C° 0 mm 2 m/s 758 mmHg 78%
    09:00 +27°C° 0 mm 2 m/s 759 mmHg 73%
    10:00 +29°C° 0 mm 2 m/s 758 mmHg 67%
    11:00 +30°C° 0 mm 2 m/s 758 mmHg 62%
    12:00 +31°C° 0 mm 2 m/s 757 mmHg 56%
    13:00 +31°C° 0 mm 2 m/s 757 mmHg 54%
    14:00 +32°C° 0 mm 2 m/s 756 mmHg 51%
    15:00 +32°C° 0 mm 2 m/s 755 mmHg 48%
    16:00 +31°C° 0 mm 2 m/s 755 mmHg 53%
    17:00 +29°C° 0 mm 2 m/s 755 mmHg 58%
    18:00 +28°C° 0 mm 2 m/s 755 mmHg 64%
    19:00 +27°C° 0 mm 2 m/s 756 mmHg 64%
    20:00 +27°C° 0 mm 2 m/s 756 mmHg 65%
    21:00 +26°C° 0 mm 2 m/s 757 mmHg 66%
    22:00 +26°C° 0 mm 2 m/s 757 mmHg 68%
    23:00 +25°C° 0 mm 2 m/s 757 mmHg 69%

    29 Outubro, Terça-feira

    Tempo Temperatura Precipitação Vento Pressão Humidade
    00:00 +25°C° 0 mm 2 m/s 757 mmHg 70%
    01:00 +25°C° 0 mm 2 m/s 757 mmHg 72%
    02:00 +25°C° 0 mm 2 m/s 757 mmHg 75%
    03:00 +24°C° 0 mm 2 m/s 757 mmHg 77%
    04:00 +24°C° 0 mm 2 m/s 757 mmHg 78%
    05:00 +24°C° 0 mm 1 m/s 757 mmHg 78%
    06:00 +24°C° 0 mm 1 m/s 757 mmHg 78%
    07:00 +25°C° 0 mm 1 m/s 758 mmHg 72%
    08:00 +26°C° 0 mm 1 m/s 758 mmHg 67%
    09:00 +28°C° 0 mm 2 m/s 758 mmHg 62%
    10:00 +29°C° 0 mm 1 m/s 758 mmHg 56%
    11:00 +31°C° 0 mm 1 m/s 757 mmHg 50%
    12:00 +32°C° 0 mm 1 m/s 757 mmHg 44%
    13:00 +32°C° 0 mm 1 m/s 756 mmHg 43%
    14:00 +33°C° 0 mm 1 m/s 756 mmHg 41%
    15:00 +34°C° 0 mm 2 m/s 755 mmHg 40%
    16:00 +32°C° 0 mm 2 m/s 755 mmHg 45%
    17:00 +30°C° 0 mm 2 m/s 755 mmHg 51%
    18:00 +29°C° 0 mm 2 m/s 755 mmHg 56%
    19:00 +28°C° 0 mm 2 m/s 756 mmHg 58%
    20:00 +27°C° 0 mm 2 m/s 756 mmHg 60%
    21:00 +27°C° 0 mm 2 m/s 756 mmHg 62%
    22:00 +27°C° 0 mm 2 m/s 757 mmHg 64%
    23:00 +26°C° 0 mm 2 m/s 757 mmHg 66%
    Mostrar mais